Location: Breungeshain
(50.5000°N, 9.2000°E)
Time: 20:43:51
(UTC+00:00)

ISS - Pass Details

Date: 24 May 2017
Orbit: 401 x 408 km, 51.6° (Epoch: 25 June)

Event Time Altitude Azimuth Distance (km) Brightness Sun altitude
Rises 22:59:58 0° 267° (W) 2,337 0.1 -18.4°
Reaches altitude 10° 23:02:03 10° 270° (W) 1,475 -0.9 -18.4°
Maximum altitude 23:05:22 72° 355° (N) 435 -3.6 -18.5°
Drops below altitude 10° 23:08:39 10° 81° (E) 1,472 -0.9 -18.5°
Sets 23:10:45 0° 83° (E) 2,331 0.1 -18.5°
